Regional Weather Roundup
Issued by NWS

Home | Current Version | Previous Version | Graphics & Text | Print | Product List | Glossary On
Versions: 1 2 3 4 5 6 7 8 9 10 11 12 13 14 15 16 17 18 19 20 21 22 23 24 25 26 27 28 29 30 31 32 33 34 35 36 37 38 39 40 41 42 43 44 45 46 47 48 49 50
000
ASUS43 KOAX 260602
RWRNE

WEATHER ROUNDUP FOR NEBRASKA
NATIONAL WEATHER SERVICE OMAHA NE
100 AM CDT FRI AUG 26 2016

NOTES: SATELLITE DATA IS BEING USED TO AUGMENT CLOUD COVER ABOVE
       12000 FEET.
       "FAIR" INDICATES FEW OR NO CLOUDS BELOW 12,000 FEET WITH NO
       SIGNIFICANT WEATHER AND/OR OBSTRUCTIONS TO VISIBILITY.

  * THESE STATIONS DO NOT REPORT WEATHER SUCH AS RAIN...SNOW OR FOG.

NEZ001>004-019>022-054>056-260700-
NEBRASKA PANHANDLE

CITY           SKY/WX    TMP DP  RH WIND       PRES   REMARKS
SCOTTSBLUFF    MOCLDY    58  47  66 E10       30.19F
6HR MIN TEMP:  58; 6HR MAX TEMP:  72;

ALLIANCE       FAIR      53  47  79 E9        30.21S
6HR MIN TEMP:  53; 6HR MAX TEMP:  71;

CHADRON        MOCLDY    53  48  83 CALM      30.21R
6HR MIN TEMP:  51; 6HR MAX TEMP:  68;

KIMBALL        FAIR      55  46  71 SE8       30.23S
SIDNEY         FAIR      54  45  71 SE7       30.23R
6HR MIN TEMP:  54; 6HR MAX TEMP:  71;

$$

NEZ057>060-069>072-079>082-260700-
SOUTHWEST NEBRASKA

CITY           SKY/WX    TMP DP  RH WIND       PRES   REMARKS
NORTH PLATTE   FAIR      54  51  90 E7        30.21S
6HR MIN TEMP:  54; 6HR MAX TEMP:  77;

IMPERIAL       FAIR      59  52  77 SE8       30.21R
6HR MIN TEMP:  58; 6HR MAX TEMP:  76;

LEXINGTON      FAIR      58  54  85 CALM      30.21S
MCCOOK         FAIR      58  53  84 E3        30.20S
6HR MIN TEMP:  58; 6HR MAX TEMP:  77;

OGALLALA       FAIR      62  50  65 E5        30.21S
$$

NEZ005>010-023>029-035>040-094-260700-
NORTH CENTRAL NEBRASKA

CITY           SKY/WX    TMP DP  RH WIND       PRES   REMARKS
VALENTINE      FAIR      52  46  80 NE3       30.22S
6HR MIN TEMP:  50; 6HR MAX TEMP:  71;

AINSWORTH      FAIR      55  51  86 SE3       30.22R
BROKEN BOW     FAIR      52  51  97 CALM      30.21S
6HR MIN TEMP:  52; 6HR MAX TEMP:  74;

O`NEILL        FAIR      55  52  88 CALM      30.21S
ORD            FAIR      56  52  86 CALM      30.19S
6HR MIN TEMP:  54; 6HR MAX TEMP:  75;

THEDFORD       FAIR      56  49  77 CALM      30.23R
$$

NEZ041-046>049-061>064-073>077-083>087-260700-
SOUTH CENTRAL NEBRASKA

CITY           SKY/WX    TMP DP  RH WIND       PRES   REMARKS
GRAND ISLAND   FAIR      56  53  90 NE3       30.19S
6HR MIN TEMP:  56; 6HR MAX TEMP:  74;

AURORA         FAIR      57  57  99 NE5       30.18S
HASTINGS       FAIR      58  55  90 NE3       30.19S
6HR MIN TEMP:  58; 6HR MAX TEMP:  74;

HEBRON         FAIR      62  60  91 CALM      30.16S
HOLDREGE       FAIR      58  55  91 CALM      30.20S
KEARNEY *      FAIR      57  55  94 NE3       30.19S
YORK           FAIR      55  55 100 N6        30.18S
$$

NEZ011>018-030>034-042>045-260700-
NORTHEAST NEBRASKA

CITY           SKY/WX    TMP DP  RH WIND       PRES   REMARKS
NORFOLK        FAIR      56  54  93 W3        30.19S
6HR MIN TEMP:  56; 6HR MAX TEMP:  74;

ALBION         FAIR      55  53  92 CALM      30.20S
BLAIR          FAIR      63  58  86 N6        30.16R
FREMONT        FAIR      60  58  94 CALM      30.17R
TEKAMAH        FAIR      58  56  93 N7        30.16S
6HR MIN TEMP:  58; 6HR MAX TEMP:  74;

WAYNE          FAIR      55  54  98 CALM      30.20R
$$

NEZ050>053-065>068-078-088>093-260700-
SOUTHEAST NEBRASKA

CITY           SKY/WX    TMP DP  RH WIND       PRES   REMARKS
LINCOLN        FAIR      60  58  92 N5        30.17S
6HR MIN TEMP:  59; 6HR MAX TEMP:  76;

OMAHA EPPLEY   FAIR      63  59  87 CALM      30.15S
6HR MIN TEMP:  62; 6HR MAX TEMP:  76;

BEATRICE       FAIR      62  60  94 N5        30.15S
FALLS CITY     FAIR      66  61  84 NE3       30.13S
6HR MIN TEMP:  65; 6HR MAX TEMP:  76;

NEBRASKA CITY  FAIR      62  62 100 N3        30.15S
PLATTSMOUTH    FAIR      64  62  95 N3        30.16R
$$

NEZ044-045-051>053-067-260700-
OMAHA AREA

CITY           SKY/WX    TMP DP  RH WIND       PRES   REMARKS
OMAHA EPPLEY   FAIR      63  59  87 CALM      30.15S
6HR MIN TEMP:  62; 6HR MAX TEMP:  76;

BLAIR          FAIR      63  58  86 N6        30.16R
FREMONT        FAIR      60  58  94 CALM      30.17R
MILLARD        FAIR      63  61  92 CALM      30.16R
OFFUTT AFB     FAIR      60  60 100 NE2       30.15R
PLATTSMOUTH    FAIR      64  62  95 N3        30.16R
WAHOO          FAIR      60  58  93 NW5       30.17R
$$




USA.gov is the U.S. government's official web portal to all federal, state and local government web resources and services.